Zurück zum Katalog

DELTA 1 DEB

AktivUNKNOWN
NORAD 10650·DEBRIS·🇺🇸 United States

Gestartet Jul 29, 1976 von Vandenberg Space Force Base

Loading…

Nächste Überflüge (nächste 24 Stunden)

TLE

AktuellSource: Space-Track

Epoche: Sep 13, 2026, 04:31 UTC

1 10650U 76077L   26256.18862922  .00000082  00000-0  19402-2 0  9996
2 10650 102.0895 334.3189 0437017 235.5247 147.5132 11.57492062121307

Verfolge DELTA 1 DEB in Echtzeit mit AllMySat

Download on the App Store